Location: Hopville
(44.8032°N, 123.1329°W)
Time: 17:29:58
(UTC+00:00)

Cosmos 1400 Rocket - Pass Details

Date: 24 January 2021
Orbit: 520 x 568 km, 81.2° (Epoch: 01 March)

Event Time Altitude Azimuth Distance (km) Brightness Sun altitude
Rises 14:40:41 0° 223° (SW) 2,741 6.1 -10.6°
Reaches altitude 10° 14:43:14 10° 238° (WSW) 1,857 5.1 -10.1°
Maximum altitude 14:46:27 22° 290° (WNW) 1,264 4.0 -9.6°
Drops below altitude 10° 14:49:44 10° 343° (NNW) 1,878 5.2 -9.0°
Sets 14:52:20 0° 358° (N) 2,781 6.2 -8.6°
